Weather History for Miles City, MT

Change the Weather History Date:

Friday, August 16, 2013

  Actual Average Record
Temperature  
Mean Temperature 79 °F 73 °F  
Max Temperature 94 °F 88 °F 107 °F (2003)
Min Temperature 63 °F 59 °F 43 °F (2012)
Degree Days  
Heating Degree Days 0 0  
Month to date heating degree days 0 0  
Since 1 June heating degree days 59 101  
Since 1 July heating degree days 0 12  
Cooling Degree Days 14 9  
Month to date cooling degree days 110 159  
Year to date cooling degree days 535 574  
Since 1 June cooling degree days 522 554  
Growing Degree Days 28 (Base 50)    
Moisture  
Dew Point 57 °F    
Average Humidity 54    
Maximum Humidity 84    
Minimum Humidity 23    
Precipitation  
Precipitation 0.00 in 0.03 in 0.78 in (1972)
Month to date precipitation 1.58 0.54  
Year to date precipitation 13.70 9.39  
Sea Level Pressure  
Sea Level Pressure 29.90 in    
Wind  
Wind Speed 10 mph (SSE)    
Max Wind Speed 17 mph    
Max Gust Speed 21 mph    
Visibility 10 miles    
Events      
T = Trace of Precipitation, MM = Missing Value Source: NWS Daily Summary

Daily Weather History Graph

Daily Weather History Graph

Search for Another Location

Airport:

Trip Planner

Search our weather history database for the weather conditions in past years. The results will help you decide how hot, cold, wet, or windy it might be!

Date:

Astronomy

Aug. 16, 2013 Rise Set
Actual Time 6:03 AM MDT 8:10 PM MDT
Civil Twilight 5:30 AM MDT 8:43 PM MDT
Nautical Twilight 4:50 AM MDT 9:23 PM MDT
Astronomical Twilight 4:04 AM MDT 10:08 PM MDT
Moon 4:39 PM MDT (8/16) 1:02 AM MDT (8/16)
Length of Visible Light 15h 12m
Length of Day
14h 07m
Waxing Gibbous, 75% of the Moon is Illuminated
Aug 16
Waxing Gibbous
Aug 20
Full
Aug 28
Last Quarter
Sep 5
New
Sep 12
First Quarter

Hourly Weather History & Observations

Time (MDT) Temp. Heat Index Dew Point Humidity Pressure Visibility Wind Dir Wind Speed Gust Speed Precip Events Conditions
12:53 AM 70.0 °F - 59.0 °F 68% 29.96 in 10.0 mi SSE 10.4 mph - N/A   Clear
1:53 AM 68.0 °F - 59.0 °F 73% 29.96 in 10.0 mi SSE 9.2 mph - N/A   Clear
2:53 AM 66.9 °F - 59.0 °F 76% 29.95 in 10.0 mi SSE 10.4 mph - N/A   Clear
3:53 AM 66.0 °F - 57.9 °F 75% 29.94 in 10.0 mi SSE 11.5 mph - N/A   Clear
4:53 AM 66.0 °F - 57.9 °F 75% 29.94 in 10.0 mi SSE 12.7 mph - N/A   Clear
5:53 AM 64.0 °F - 57.9 °F 80% 29.94 in 10.0 mi SE 11.5 mph - N/A   Clear
6:53 AM 63.0 °F - 57.9 °F 84% 29.94 in 10.0 mi SSE 10.4 mph - N/A   Clear
7:53 AM 66.9 °F - 59.0 °F 76% 29.94 in 10.0 mi SE 6.9 mph - N/A   Clear
8:53 AM 70.0 °F - 59.0 °F 68% 29.95 in 10.0 mi SE 10.4 mph - N/A   Clear
9:53 AM 73.9 °F - 60.1 °F 62% 29.94 in 10.0 mi SE 9.2 mph - N/A   Clear
10:53 AM 78.1 °F - 60.1 °F 54% 29.94 in 10.0 mi SE 8.1 mph - N/A   Clear
11:53 AM 82.0 °F 82.7 °F 61.0 °F 49% 29.92 in 10.0 mi SSE 6.9 mph - N/A   Clear
12:53 PM 87.1 °F 86.7 °F 60.1 °F 40% 29.90 in 10.0 mi SE 8.1 mph - N/A   Clear
1:53 PM 91.0 °F 89.2 °F 55.9 °F 30% 29.88 in 10.0 mi SSE 11.5 mph - N/A   Clear
2:53 PM 93.0 °F 90.8 °F 54.0 °F 27% 29.87 in 10.0 mi SE 8.1 mph - N/A   Clear
3:53 PM 93.0 °F - 50.0 °F 23% 29.86 in 10.0 mi SSE 9.2 mph - N/A   Clear
4:53 PM 91.0 °F 88.5 °F 53.1 °F 27% 29.86 in 10.0 mi SSE 6.9 mph - N/A   Clear
5:53 PM 88.0 °F 85.7 °F 53.1 °F 30% 29.86 in 10.0 mi SSE 6.9 mph - N/A   Clear
6:53 PM 87.1 °F - 52.0 °F 30% 29.85 in 10.0 mi SSE 11.5 mph - N/A   Clear
7:53 PM 84.0 °F 82.6 °F 54.0 °F 35% 29.85 in 10.0 mi SE 9.2 mph - N/A   Clear
8:53 PM 78.1 °F - 55.9 °F 46% 29.86 in 10.0 mi SSE 8.1 mph - N/A   Clear
9:53 PM 77.0 °F - 57.9 °F 52% 29.87 in 10.0 mi SSE 10.4 mph - N/A   Clear
10:53 PM 75.0 °F - 59.0 °F 57% 29.86 in 10.0 mi South 10.4 mph - N/A   Clear
11:53 PM 73.9 °F - 59.0 °F 59% 29.86 in 10.0 mi SSE 13.8 mph - N/A   Clear